Location: Elstree
(51.6403°N, 0.2969°W)
Time: 14:38:37
(UTC+00:00)

OBJECT-B - Pass Details

Date: 03 March 2021
Orbit: 414 x 427 km, 97.0° (Epoch: 11 April)

Event Time Altitude Azimuth Distance (km) Brightness Sun altitude
Exits shadow 19:38:15 62° 110° (ESE) 481 0.7 -18.2°
Maximum altitude 19:38:32 67° 75° (ENE) 464 0.6 -18.3°
Drops below altitude 10° 19:41:45 10° 352° (N) 1,515 3.8 -18.8°
Sets 19:43:46 0° 350° (N) 2,383 4.9 -19.1°
